Flag for Australia Weather past 2 weeks in Traralgon, Victoria, Australia

Now
68 °F

Mild.


Feels Like: 68 °F
Forecast: 47 / 62 °F
Wind: 7 mph from South

Location: Latrobe Valley Airport

Current Time: Oct 26, 2014 at 6:06:03 PM

Latest Report: Oct 26, 2014 at 4:00 PM


Visibility: N/A

Pressure: 29.86 "Hg

Humidity: 64%

Dew point: 55 °F

Location of TraralgonLocation

Historic Weather in Traralgon — Graph

°F

Traralgon temperature yesterday

Maximum temperature yesterday: 67 °F (at 3:00 PM)
Minimum temperature yesterday: 56 °F (at 7:00 AM)
Average temperature yesterday: 60 °F

Past Weeks' High & Low Weather Summary

 TemperatureHumidityPressure
High87 °F (Oct 22, 4:00 PM)100% (Oct 12, 7:00 AM)30.47 "Hg (Oct 12, 7:00 AM)
Low39 °F (Oct 15, 7:00 AM)24% (Oct 19, 4:00 PM)29.65 "Hg (Oct 12, 6:00 PM)
Average58 °F79%30.11 "Hg
* Reported Oct 11 4:00 PM — Oct 26 4:00 PM, Traralgon, Weather by CustomWeather, © 2014

Note: Actual official high and low records may vary slightly from our data, if they occured in-between our weather recording intervals... More about our weather records

Advertising

Traralgon weather history for previous 24 hours

 ConditionsComfort  
Time TempWeatherWind HumidityBarometerVisibility
4:00 PM
Oct 26
68 °FMild.7 mph64%29.86 "HgN/A
3:00 PM69 °FMild.9 mph62%29.89 "HgN/A
1:00 PM65 °FMild.8 mph70%29.90 "HgN/A
12:00 PM62 °FOvercast.6 mph72%29.93 "HgN/A
10:00 AM58 °FCool.9 mph87%29.95 "HgN/A
9:00 AM57 °FOvercast.7 mph93%29.93 "Hg6 mi
7:00 AM56 °FCool.No wind98%29.92 "HgN/A
6:00 AM56 °FLow clouds.3 mph98%29.91 "HgN/A
4:00 AM56 °FCool.2 mph97%29.91 "HgN/A
3:00 AM56 °FOvercast.No wind99%29.92 "HgN/A
1:00 AM56 °FCool.6 mph93%29.98 "HgN/A
12:00 AM56 °FOvercast.6 mph87%30.00 "HgN/A
10:00 PM
Oct 25
57 °FCool.7 mph86%30.01 "HgN/A
9:00 PM58 °FOvercast.7 mph84%30.01 "HgN/A
7:00 PM61 °FCool.9 mph77%29.98 "HgN/A
6:00 PM62 °FOvercast.7 mph74%29.98 "HgN/A
Weather by CustomWeather, © 2014

See weather overviewHow to use our weather pages